Location: Makakahi
(40.6833°S, 175.6000°E)
Time: 23:58:57
(UTC+00:00)

Cosmos 1300 - Visible Passes

Search period start: 04 October 2024 00:00
Search period end: 14 October 2024 00:00
Orbit: 450 x 453 km, 82.5° (Epoch: 04 October)

Date Brightness Start Highest point End Pass type
(mag) Time Alt. Az. Time Alt. Az. Time Alt. Az.
04 Oct 4.5 07:38:52 10° SSW 07:42:00 30° W 07:45:06 10° NNW visible
05 Oct 2.7 07:03:35 10° SSW 07:07:08 73° W 07:10:37 10° N visible
07 Oct 5.4 07:28:25 10° SW 07:31:06 20° W 07:33:45 10° NW visible
08 Oct 3.7 06:52:39 10° SSW 06:56:04 46° W 06:59:25 10° NNW visible
10 Oct 5.8 07:17:30 10° SW 07:19:28 14° W 07:21:25 10° WNW visible
13 Oct 6.5 07:06:57 10° W 07:07:09 10° W 07:07:20 10° W visible
